x

Superior Grand Traverse Bay, Mi (gtrm4) Weather Station

9:00am - Fri 9th Dec 2016 All times are CST. -6 hours from GMT.

  • Wind
    7mph, 9mph gusts
  • Air Temp 20°f
  • Sea Pressure 1029.1mb
  • Superior Grand Traverse Bay, Mi
  • Superior Grand Traverse Bay, Mi

More Historic Weather Station data

Upgrade to MSW Pro to gain access to the past 30 days of data for over 8000 Wavebouys and Weather Stations around the globe.

Join Pro

Comparision Forecast

View Surf forecast
   
Fri 12/09 9:00am 7 9 mph 1029.1mb 20f
8:50am 7 9 mph 1029.1mb 20f
8:40am 8 10 mph 1028.8mb 20f
8:30am 5 11 mph 1028.8mb 19f
8:20am 8 10 mph 1028.8mb 19f
8:10am 5 6 mph 1028.8mb 20f
8:00am 3 6 mph 1028.4mb 19f
7:50am 2 3 mph 1028.4mb 19f
7:40am 2 3 mph 1028.4mb 19f
7:30am 2 3 mph 1028.4mb 19f
7:20am 2 5 mph 1028.4mb 19f
7:10am 3 6 mph 1028.4mb 19f
7:00am 3 6 mph 1028.4mb 19f
6:50am 6 8 mph 1028.4mb 19f
6:40am 3 6 mph 1028.4mb 19f
6:30am 5 6 mph 1028.4mb 19f
6:20am 3 6 mph 1028.4mb 19f
6:10am 5 6 mph 1028.1mb 19f
6:00am 3 5 mph 1028.1mb 19f
5:50am 3 7 mph 1028.1mb 19f
5:40am 5 8 mph 1028.1mb 20f
5:30am 6 8 mph 1028.1mb 20f
5:20am 7 9 mph 1027.8mb 20f
5:10am 5 7 mph 1027.8mb 20f
5:00am 5 7 mph 1027.4mb 20f
4:50am 3 7 mph 1027.8mb 20f
4:40am 3 6 mph 1027.8mb 20f
4:30am 2 3 mph 1027.4mb 20f
4:20am 3 5 mph 1027.8mb 20f
4:10am 2 3 mph 1027.4mb 20f
4:00am 3 5 mph 1027.4mb 20f
3:50am 3 5 mph 1027.4mb 20f
3:40am 3 9 mph 1027.4mb 20f
3:30am 5 7 mph 1027.4mb 20f
3:20am 5 6 mph 1027.4mb 20f
3:10am 5 6 mph 1027.1mb 20f
3:00am 5 7 mph 1027.1mb 20f
2:50am 6 7 mph 1027.1mb 20f
2:40am 5 7 mph 1027.1mb 19f
2:30am 5 6 mph 1027.1mb 18f
2:20am 5 6 mph 1026.8mb 19f
2:10am 5 6 mph 1026.8mb 19f
2:00am 5 6 mph 1026.8mb 18f
1:50am 5 6 mph 1026.8mb 18f
1:40am 5 6 mph 1026.8mb 18f
1:30am 2 5 mph 1026.8mb 18f
1:20am 3 6 mph 1026.8mb 18f
1:10am 3 7 mph 1026.8mb 18f
1:00am 6 7 mph 1026.8mb 18f
12:50am 6 7 mph 1026.4mb 17f
12:40am 5 7 mph 1026.4mb 17f
12:30am 6 7 mph 1026.1mb 16f
12:20am 6
mph
1026.1mb 15f
12:10am 3
mph
1026.1mb 16f
12:00am 3
mph
1026.1mb 17f
Thu 12/08 11:50pm 2 3 mph 1026.1mb 17f
11:40pm 2 3 mph 1026.1mb 17f
11:30pm 3 6 mph 1026.1mb 17f
11:20pm 5 7 mph 1026.1mb 17f
11:10pm 5 6 mph 1026.1mb 17f
11:00pm 3 5 mph 1026.1mb 18f
10:50pm 3
mph
1026.1mb 19f
10:40pm 3
mph
1026.1mb 19f
10:30pm 3 9 mph 1025.7mb 20f
10:20pm 5 6 mph 1025.7mb 18f
10:10pm 3
mph
1025.7mb 19f
10:00pm 3 6 mph 1025.7mb 20f
9:50pm 2 3 mph 1025.7mb 20f
9:40pm 1 3 mph 1025.7mb 20f
9:30pm 3 7 mph 1025.7mb 20f
9:20pm 5 8 mph 1025.4mb 21f
9:10pm 6 14 mph 1025.4mb 21f
9:00pm 7 9 mph 1025.4mb 21f
8:50pm 6 9 mph 1025.4mb 21f
8:40pm 6 9 mph 1025.4mb 21f
8:30pm 5 9 mph 1025.1mb 22f
8:20pm 6 13 mph 1025.1mb 22f
8:10pm 8 13 mph 1025.1mb 22f
8:00pm 7 10 mph 1025.1mb 22f
7:50pm 6 11 mph 1024.7mb 22f
7:40pm 8 11 mph 1024.7mb 22f
7:30pm 5 10 mph 1024.7mb 23f
7:20pm 7 15 mph 1024.7mb 22f
7:10pm 9 17 mph 1024.7mb 23f
7:00pm 7 15 mph 1024.7mb 23f
6:50pm 3 7 mph 1024.4mb 23f
6:40pm 6 10 mph 1024.4mb 23f
6:30pm 6 13 mph 1024.4mb 24f
6:20pm 9 10 mph 1024mb 24f
6:10pm 7 15 mph 1024mb 24f
6:00pm 8 11 mph 1024mb 24f
5:50pm 7 9 mph 1024mb 24f
5:40pm 7 11 mph 1023.7mb 24f
5:30pm 7 10 mph 1023.7mb 24f
5:20pm 7 14 mph 1023.7mb 24f
5:10pm 11 16 mph 1023.4mb 24f
5:00pm 11 17 mph 1023.4mb 24f
4:50pm 9 22 mph 1023.4mb 24f
4:40pm 11 17 mph 1023mb 25f
4:30pm 9 22 mph 1023mb 25f
4:20pm 16 23 mph 1022.4mb 25f
4:10pm 13 23 mph 1022.4mb 26f
4:00pm 14 20 mph 1022.4mb 26f
3:50pm 11 23 mph 1022mb 26f
3:40pm 14 21 mph 1022mb 27f
3:30pm 9 20 mph 1021.7mb 27f
3:20pm 11 20 mph 1021.7mb 27f
3:10pm 14 21 mph 1021.3mb 27f
3:00pm 10 23 mph 1021.3mb 27f
2:50pm 15 23 mph 1021.3mb 28f
2:40pm 13 20 mph 1021mb 28f
2:30pm 14 21 mph 1020.7mb 28f
2:20pm 18 25 mph 1020.7mb 29f
2:10pm 11 18 mph 1020.7mb 29f
2:00pm 8 18 mph 1020.3mb 29f
1:50pm 13 18 mph 1020.3mb 29f
1:40pm 10 16 mph 1020mb 30f
1:30pm 14 22 mph 1020mb 29f
1:20pm 11 17 mph 1020mb 29f
1:10pm 13 21 mph 1019.6mb 30f
1:00pm 15 22 mph 1019.6mb 30f
12:50pm 15 21 mph 1019.3mb 30f
12:40pm 11 21 mph 1019.3mb 30f
12:30pm 14 22 mph 1019.3mb 29f
12:20pm 11 21 mph 1019.3mb 30f
12:10pm 13 18 mph 1019.3mb 30f
12:00pm 14 20 mph 1019mb 29f
11:50am 10 18 mph 1019mb 29f
11:40am 11 18 mph 1019mb 29f
11:30am 9 18 mph 1019mb 30f
11:20am 8 15 mph 1018.6mb 29f
11:10am 8 14 mph 1018.6mb 29f
11:00am 6 7 mph 1018.6mb 28f
10:50am 6 8 mph 1018.6mb 27f
10:40am 6 13 mph 1018.3mb 27f
10:30am 8 10 mph 1018.3mb 27f
10:20am 8 14 mph 1018.3mb 27f
10:10am 5 10 mph 1017.9mb 28f
10:00am 6 10 mph 1017.6mb 28f
9:50am 7 13 mph 1017.6mb 27f
9:40am 8 15 mph 1017.6mb 27f
9:30am 9 14 mph 1017.3mb 27f
9:20am 8 18 mph 1016.9mb 27f
9:10am 11 21 mph 1016.9mb 27f
9:00am 10 18 mph 1016.6mb 27f
8:50am 9 17 mph 1016.6mb 27f
8:40am 8 11 mph 1016.3mb 27f
8:30am 6 13 mph 1015.9mb 27f
8:20am 8 13 mph 1015.9mb 27f
8:10am 11 17 mph 1015.6mb 27f
8:00am 7 15 mph 1015.6mb 27f
7:50am 3 9 mph 1015.2mb 26f
7:40am 7 11 mph 1014.9mb 27f
7:30am 11 17 mph 1014.6mb 27f
7:20am 9 16 mph 1014.6mb 27f
7:10am 9 14 mph 1014.2mb 27f
7:00am 8 14 mph 1014.2mb 27f
6:50am 9 15 mph 1013.9mb 27f
6:40am 10 20 mph 1013.9mb 26f
6:30am 7 17 mph 1013.9mb 27f
6:20am 10 18 mph 1013.5mb 27f
6:10am 8 15 mph 1013.2mb 27f
6:00am 7 16 mph 1013.2mb 27f
5:50am 9 16 mph 1012.9mb 28f
5:40am 14 18 mph 1012.5mb 28f
5:30am 13 18 mph 1012.2mb 28f
5:20am 9 16 mph 1012.2mb 28f
5:10am 9 16 mph 1012.2mb 28f
5:00am 8 14 mph 1011.9mb 27f
4:50am 8 11 mph 1011.9mb 27f
4:40am 9 14 mph 1011.5mb 27f
4:30am 8 15 mph 1011.5mb 27f
4:20am 11 16 mph 1011.5mb 28f
4:10am 7 10 mph 1011.2mb 28f
4:00am 6 13 mph 1011.2mb 28f
3:50am 9 13 mph 1010.8mb 28f
3:40am 10 14 mph 1010.8mb 28f
3:30am 8 16 mph 1010.5mb 28f
3:20am 9 15 mph 1010.5mb 28f
3:10am 9 16 mph 1010.2mb 28f
3:00am 8 14 mph 1010.2mb 28f
2:50am 8 14 mph 1010.2mb 28f
2:40am 10 15 mph 1010.2mb 28f
2:30am 6 11 mph 1010.2mb 28f
2:20am 7 10 mph 1010.2mb 28f
2:10am 7 10 mph 1009.8mb 28f
2:00am 7 9 mph 1009.8mb 28f
1:50am 7 9 mph 1009.8mb 28f
1:40am 6 9 mph 1009.5mb 28f
1:30am 6 10 mph 1009.5mb 28f
1:20am 7 11 mph 1009.1mb 27f
1:10am 5 10 mph 1009.5mb 27f
1:00am 7 10 mph 1009.1mb 27f
12:50am 6 8 mph 1009.1mb 27f
12:00am 9 14 mph 1009.1mb 27f
Wed 12/07 11:50pm 7 14 mph 1009.1mb 28f
11:00pm 7 11 mph 1008.5mb 24f
10:50pm 7 10 mph 1008.5mb 24f
10:00pm 9 16 mph 1007.8mb 23f
9:50pm 9 15 mph 1007.8mb 24f
9:40pm 9 16 mph 1007.8mb 23f
9:30pm 8 13 mph 1007.8mb 23f
9:20pm 9 15 mph 1007.8mb 23f
9:10pm 10 16 mph 1007.8mb 24f
9:00pm 9 15 mph 1007.8mb 24f
8:50pm 10 17 mph 1007.8mb 24f
8:40pm 11 20 mph 1007.8mb 24f
8:30pm 11 18 mph 1007.8mb 23f
8:20pm 13 18 mph 1007.5mb 23f
8:10pm 11 20 mph 1007.8mb 23f
8:00pm 13 20 mph 1007.8mb 23f
7:50pm 11 20 mph 1007.8mb 23f
7:40pm 10 20 mph 1007.5mb 23f
7:30pm 10 22 mph 1007.5mb 23f
7:20pm 10 18 mph 1007.8mb 23f
7:10pm 13 23 mph 1007.8mb 23f
7:00pm 9 15 mph 1007.5mb 23f
6:50pm 10 20 mph 1007.5mb 23f
6:40pm 10 20 mph 1007.5mb 23f
6:30pm 9 21 mph 1007.5mb 23f
6:20pm 11 22 mph 1007.1mb 23f
6:10pm 16 25 mph 1007.1mb 23f
6:00pm 13 23 mph 1007.1mb 22f
5:50pm 13 22 mph 1007.5mb 23f
5:40pm 11 22 mph 1007.1mb 23f
5:30pm 13 20 mph 1007.5mb 23f
5:20pm 14 20 mph 1007.5mb 23f
5:10pm 15 24 mph 1007.1mb 23f
5:00pm 13 23 mph 1007.1mb 23f
4:50pm 10 25 mph 1007.1mb 23f
4:40pm 11 23 mph 1007.1mb 23f
4:30pm 11 22 mph 1007.1mb 23f
4:20pm 16 25 mph 1007.1mb 23f
4:10pm 13 28 mph 1006.8mb 23f
4:00pm 16 25 mph 1006.8mb 23f
3:50pm 17 29 mph 1006.8mb 23f
3:40pm 18 29 mph 1006.8mb 23f
3:30pm 15 26 mph 1006.8mb 23f
3:20pm 20 30 mph 1006.4mb 23f
3:10pm 16 25 mph 1006.4mb 23f
3:00pm 14 26 mph 1006.4mb 23f
2:50pm 14 23 mph 1006.1mb 23f
2:40pm 13 26 mph 1006.1mb 24f
2:30pm 13 28 mph 1005.8mb 24f
2:20pm 14 26 mph 1005.8mb 24f
2:10pm 16 25 mph 1005.8mb 24f
2:00pm 11 28 mph 1005.8mb 24f
1:50pm 18 28 mph 1005.8mb 24f
1:40pm 15 28 mph 1005.8mb 24f
1:30pm 18 28 mph 1005.8mb 24f
1:20pm 15 31 mph 1005.8mb 24f
1:10pm 17 29 mph 1005.8mb 24f
1:00pm 17 33 mph 1005.4mb 24f
12:50pm 16 30 mph 1005.1mb 24f
12:40pm 17 28 mph 1005.4mb 24f
12:30pm 20 29 mph 1005.4mb 23f
12:20pm 13 31 mph 1005.4mb 24f
12:10pm 17 28 mph 1005.4mb 24f
12:00pm 15 28 mph 1005.4mb 24f
11:50am 14 28 mph 1005.4mb 24f
11:40am 20 31 mph 1005.4mb 24f
11:30am 16 28 mph 1005.4mb 24f
11:20am 17 23 mph 1005.4mb 25f
11:10am 15 26 mph 1005.4mb 24f
11:00am 16 23 mph 1005.4mb 24f
10:50am 20 28 mph 1005.4mb 24f
10:40am 13 26 mph 1005.4mb 24f
10:30am 14 22 mph 1005.4mb 24f
10:20am 13 23 mph 1005.4mb 24f
10:10am 9 24 mph 1005.8mb 24f
10:00am 14 22 mph 1005.4mb 24f
9:50am 17 32 mph 1005.4mb 24f
9:40am 13 24 mph 1005.4mb 25f
9:30am 14 23 mph 1005.4mb 24f
9:20am 13 23 mph 1005.1mb 24f
9:10am 15 24 mph 1005.1mb 24f
9:00am 11 23 mph 1005.1mb 24f
8:50am 15 24 mph 1005.1mb 23f
8:40am 11 25 mph 1005.1mb 24f
8:30am 13 22 mph 1004.7mb 23f
8:20am 14 24 mph 1004.7mb 24f
8:10am 14 23 mph 1004.7mb 24f
8:00am 15 22 mph 1004.7mb 24f
7:50am 10 28 mph 1004.7mb 24f
7:40am 13 22 mph 1004.4mb 24f
7:30am 9 23 mph 1004.4mb 24f
7:20am 8 25 mph 1004.4mb 24f
7:10am 11 26 mph 1004.1mb 24f
7:00am 9 24 mph 1004.1mb 24f
6:50am 14 22 mph 1004.1mb 24f
6:40am 10 21 mph 1004.1mb 24f
6:30am 13 20 mph 1004.1mb 24f
6:20am 11 18 mph 1003.7mb 24f
6:10am 9 18 mph 1003.7mb 24f
6:00am 9 20 mph 1003.7mb 24f
5:50am 10 22 mph 1003.7mb 24f
5:40am 15 22 mph 1003.7mb 24f
5:30am 11 20 mph 1003.7mb 24f
5:20am 9 17 mph 1003.4mb 24f
5:10am 8 18 mph 1003.4mb 24f
5:00am 11 23 mph 1003.4mb 24f
4:50am 13 22 mph 1003mb 24f
4:40am 10 18 mph 1003.4mb 24f
4:30am 11 23 mph 1003.4mb 24f
4:20am 11 20 mph 1003.4mb 24f
4:10am 9 21 mph 1003.4mb 24f
4:00am 9 25 mph 1003mb 24f
3:50am 9 15 mph 1003mb 24f
3:40am 10 22 mph 1003mb 24f
3:30am 11 22 mph 1003mb 25f
3:20am 9 20 mph 1003mb 25f
3:10am 11 22 mph 1003mb 25f
3:00am 11 23 mph 1003mb 25f
2:50am 7 17 mph 1003mb 25f
2:40am 7 18 mph 1003mb 25f
2:30am 11 20 mph 1003mb 26f
2:20am 9 17 mph 1003mb 26f
2:10am 11 20 mph 1003mb 26f
2:00am 11 18 mph 1003mb 26f
1:50am 11 17 mph 1003mb 26f
1:40am 8 17 mph 1002.7mb 26f
1:30am 9 18 mph 1002.7mb 26f
1:20am 11 20 mph 1002.7mb 26f
1:10am 13 22 mph 1002.7mb 26f
1:00am 8 18 mph 1002.7mb 26f
12:50am 10 20 mph 1002.7mb 26f
12:40am 13 24 mph 1002.4mb 26f
12:30am 11 22 mph 1002.4mb 26f
12:20am 11 21 mph 1002.4mb 26f
12:10am 11 25 mph 1002mb 26f
12:00am 9 20 mph 1002.4mb 26f
Tue 12/06 11:50pm 11 18 mph 1002mb 26f
11:40pm 8 16 mph 1002mb 26f
11:30pm 10 18 mph 1002mb 26f
11:20pm 8 16 mph 1002.4mb 26f
11:10pm 10 17 mph 1002.4mb 26f
11:00pm 9 20 mph 1002.4mb 26f
10:50pm 11 18 mph 1002.4mb 26f
10:40pm 10 20 mph 1002.4mb 26f
10:30pm 9 15 mph 1002.4mb 26f
10:20pm 9 17 mph 1002.4mb 26f
10:10pm 9 16 mph 1002.4mb 26f
10:00pm 7 20 mph 1002.4mb 26f
9:50pm 9 18 mph 1002.4mb 26f
9:40pm 9 22 mph 1002.4mb 26f
9:30pm 15 22 mph 1002.4mb 26f
9:20pm 10 16 mph 1002.4mb 27f
9:10pm 10 20 mph 1002.4mb 27f
9:00pm 13 21 mph 1002.4mb 27f
8:50pm 11 26 mph 1002mb 27f
8:00pm 10 30 mph 1002mb 28f
7:50pm 10 21 mph 1002mb 29f
6:50pm 13 20 mph 1001.7mb 30f
6:00pm 9 17 mph 1001mb 33f
5:50pm 9 14 mph 1001mb 33f
5:40pm 8 17 mph 1001mb 33f
5:30pm 6 14 mph 1001mb 33f
5:20pm 10 18 mph 1001mb 34f
5:10pm 10 18 mph 1000.7mb 36f
5:00pm 10 21 mph 1000.7mb 36f
4:50pm 9 15 mph 1000.7mb 36f
4:40pm 9 18 mph 1000.7mb 37f
4:30pm 7 17 mph 1000.3mb 37f
4:20pm 6 20 mph 1000.3mb 37f
4:10pm 5 13 mph 1000.7mb 37f
4:00pm 8 16 mph 1000.7mb 37f
3:50pm 8 15 mph 1000.7mb 37f
3:40pm 6 10 mph 1000.7mb 37f
3:30pm 6 11 mph 1000.7mb 37f
3:20pm 6 13 mph 1001mb 37f
3:10pm 6 10 mph 1000.7mb 37f
3:00pm 7 14 mph 1001mb 36f
2:50pm 7 13 mph 1001mb 36f
2:40pm 7 14 mph 1001mb 36f
2:30pm 9 15 mph 1001.4mb 36f
2:20pm 7 13 mph 1001.4mb 35f
2:10pm 8 16 mph 1001.7mb 36f
2:00pm 10 16 mph 1001.4mb 38f
1:50pm 8 18 mph 1001.4mb 39f
1:40pm 7 21 mph 1001.4mb 40f
1:30pm 10 18 mph 1001.7mb 41f
1:20pm 11 24 mph 1001.7mb 41f
1:10pm 9 23 mph 1001.7mb 41f
1:00pm 9 17 mph 1001.7mb 42f
12:50pm 9 21 mph 1001.7mb 42f
12:00pm 15 23 mph 1002mb 42f
11:50am 21 26 mph 1002mb 42f
11:30am 24 28 mph 1002.4mb 42f
11:20am 23 30 mph 1002.7mb 42f
11:10am 23 28 mph 1003mb 42f
11:00am 22 29 mph 1003mb 42f
10:50am 26 30 mph 1003mb 42f
10:40am 25 36 mph 1003mb 42f
10:30am 28 33 mph 1003.4mb 42f
10:20am 26 34 mph 1003.4mb 42f
10:10am 28 33 mph 1003.4mb 42f
10:00am 28 34 mph 1003.7mb 42f
9:50am 26 32 mph 1004.1mb 42f
9:40am 28 32 mph 1004.1mb 41f
9:30am 25 34 mph 1004.4mb 42f
9:20am 23 30 mph 1004.7mb 42f
9:10am 23 28 mph 1004.7mb 42f
9:00am 23 29 mph 1005.1mb 42f
8:50am 24 30 mph 1005.4mb 42f
8:40am 22 30 mph 1005.1mb 42f
8:30am 22 29 mph 1005.8mb 42f
8:20am 23 28 mph 1005.8mb 42f
8:10am 24 32 mph 1005.8mb 42f
8:00am 23 29 mph 1005.8mb 42f
7:50am 26 32 mph 1005.8mb 42f
7:40am 24 30 mph 1005.8mb 42f
7:30am 24 31 mph 1006.1mb 41f
7:20am 26 32 mph 1006.1mb 41f
7:10am 28 33 mph 1006.1mb 41f
7:00am 26 33 mph 1006.1mb 42f
6:50am 25 32 mph 1006.1mb 42f
6:40am 21 30 mph 1006.4mb 42f
6:30am 21 28 mph 1006.4mb 41f
6:20am 18 26 mph 1006.4mb 41f
6:10am 14 21 mph 1006.4mb 41f
6:00am 10 23 mph 1006.4mb 40f
5:50am 11 20 mph 1006.8mb 40f
5:40am 11 21 mph 1006.8mb 40f
5:30am 10 21 mph 1007.1mb 40f
5:20am 10 21 mph 1007.1mb 40f
5:10am 9 21 mph 1007.1mb 40f
5:00am 16 23 mph 1007.1mb 40f
4:50am 14 22 mph 1007.5mb 40f
4:40am 13 20 mph 1007.8mb 40f
4:30am 17 22 mph 1007.8mb 40f
4:20am 16 18 mph 1007.8mb 40f
4:10am 10 15 mph 1007.8mb 40f
4:00am 8 15 mph 1008.1mb 41f
3:50am 7 13 mph 1008.1mb 41f
3:40am 9 16 mph 1008.1mb 42f
3:30am 11 17 mph 1008.5mb 41f
3:20am 14 18 mph 1008.5mb 41f
3:10am 17 18 mph 1008.5mb 41f
3:00am 16 20 mph 1008.5mb 41f
2:50am 16 21 mph 1008.5mb 42f
2:40am 18 22 mph 1008.5mb 42f
2:30am 20 21 mph 1008.8mb 42f
2:20am 17 23 mph 1008.8mb 42f
2:10am 21 23 mph 1008.8mb 42f
2:00am 18 22 mph 1008.8mb 41f
1:50am 18 23 mph 1009.1mb 41f
1:40am 21 25 mph 1008.8mb 41f
1:30am 22 26 mph 1008.8mb 42f
1:20am 24 26 mph 1008.8mb 42f
1:10am 22 25 mph 1008.8mb 42f
1:00am 22 25 mph 1009.1mb 42f
12:50am 20 23 mph 1008.8mb 42f
12:40am 20 23 mph 1009.1mb 42f
12:30am 18 20 mph 1009.1mb 41f
12:20am 15 18 mph 1009.5mb 41f
12:10am 16 18 mph 1009.8mb 41f
12:00am 15 21 mph 1009.8mb 41f
Mon 12/05 11:50pm 20 22 mph 1009.8mb 41f
11:40pm 15 20 mph 1010.2mb 41f
11:30pm 11 13 mph 1010.2mb 40f
11:20pm 9 11 mph 1010.5mb 40f
11:10pm 9 11 mph 1010.5mb 40f
11:00pm 8 10 mph 1010.5mb 40f
10:50pm  -  mph 1010.8mb 35f
10:40pm  -  mph 1011.2mb 34f
10:30pm  -  mph 1011.5mb 33f
10:20pm  -  mph 1011.2mb 33f
10:10pm  -  mph 1011.5mb 33f
10:00pm  -  mph 1011.5mb 33f
9:50pm  -  mph 1011.5mb 34f
9:40pm  -  mph 1011.9mb 35f
9:30pm  -  mph 1011.5mb 33f
9:20pm  -  mph 1011.5mb 32f
9:10pm  -  mph 1011.9mb 32f
9:00pm  -  mph 1011.9mb 32f
8:50pm  -  mph 1011.9mb 32f
8:40pm  -  mph 1011.9mb 32f
8:30pm  -  mph 1012.2mb 32f
8:20pm  -  mph 1012.2mb 33f
8:10pm  -  9 mph 1011.9mb 37f
8:00pm 6 11 mph 1011.9mb 39f
7:50pm 9 13 mph 1011.9mb 41f
7:40pm 11 13 mph 1011.9mb 41f
7:30pm 10 13 mph 1011.9mb 41f
7:20pm 11 14 mph 1012.2mb 41f
7:10pm 10 14 mph 1012.2mb 40f
7:00pm 8 10 mph 1012.2mb 40f
6:50pm 9 11 mph 1011.9mb 40f
6:40pm 8 11 mph 1011.9mb 40f
6:30pm 7 8 mph 1011.9mb 39f
6:20pm 9 10 mph 1011.2mb 39f
6:10pm 2 9 mph 1011.2mb 36f
6:00pm  -  mph 1011.5mb 32f
5:50pm  -  mph 1011.5mb 31f
5:40pm  -  mph 1011.5mb 31f
5:30pm  -  mph 1011.5mb 31f
5:20pm  -  mph 1011.5mb 31f
5:10pm  -  mph 1011.5mb 31f
5:00pm  -  mph 1011.2mb 30f
4:50pm  -  mph 1011.5mb 31f
4:40pm  -  mph 1011.5mb 31f
4:30pm  -  mph 1011.5mb 32f